Flight Track Log - Related Links

Times and Time Zones

All times are in EDT time to prevent confusion due to time zone crossing. See the UAL4528 flight status page for this flight to view local times or setup timezone preferences in your user account.

Time Position Orientation Groundspeed Altitude Reporting Facility
EDT Latitude Longitude Course Direction KTS MPH feet Rate Location/Type
Sun 12:31:20 PM 41.4153 -81.8431 355° North 158 182 1,700  Level Cleveland Center
Sun 12:32:21 PM 41.4714 -81.8494 355° North 227 261 3,300 2,017 Climbing Cleveland Center
Sun 12:33:16 PM 41.5189 -81.8894 328° Northwest 283 326 5,600 2,452 Climbing Cleveland Center
Sun 12:34:16 PM 41.4886 -81.9747 245° Southwest 226 260 8,000 2,350 Climbing Cleveland Center
Sun 12:35:16 PM 41.4458 -82.0597 236° Southwest 243 280 10,300 1,750 Climbing Cleveland Center
Sun 12:36:16 PM 41.3947 -82.1553 235° Southwest 296 341 11,500 1,350 Climbing Cleveland Center
Sun 12:37:16 PM 41.3411 -82.2536 234° Southwest 329 379 13,000 1,500 Climbing Cleveland Center
Sun 12:38:16 PM 41.2853 -82.3572 234° Southwest 346 398 14,500 1,350 Climbing Cleveland Center
Sun 12:39:16 PM 41.2339 -82.4525 234° Southwest 351 404 15,700 1,350 Climbing Cleveland Center
Sun 12:40:16 PM 41.1819 -82.5642 238° Southwest 357 411 17,200 1,100 Climbing Cleveland Center
Sun 12:41:16 PM 41.1319 -82.6728 239° Southwest 357 411 17,900 1,100 Climbing Cleveland Center
Sun 12:42:16 PM 41.0964 -82.7903 248° West 352 405 19,400 1,500 Climbing Cleveland Center
Sun 12:43:16 PM 41.0792 -82.9192 260° West 352 405 20,900 945 Climbing Cleveland Center
Sun 12:45:01 PM 41.0433 -83.1636 259° West 370 426 22,000 395 Climbing Indianapolis Center
Sun 12:46:03 PM 41.0228 -83.3106 260° West 397 457 22,000  Level Indianapolis Center
Sun 12:47:05 PM 41.0011 -83.4572 259° West 402 463 22,000  Level Indianapolis Center
Sun 12:48:07 PM 40.9792 -83.5967 258° West 409 471 22,000  Level Indianapolis Center
Sun 12:49:09 PM 40.9564 -83.7447 259° West 410 472 22,000  Level Indianapolis Center
Sun 12:50:11 PM 40.8947 -83.8989 242° Southwest 406 467 22,000  Level Indianapolis Center
Sun 12:51:12 PM 40.8375 -84.0314 240° Southwest 411 473 22,000  Level Indianapolis Center
Sun 12:52:14 PM 40.7811 -84.1614 240° Southwest 407 468 22,000  Level Indianapolis Center
Sun 12:53:28 PM 40.7242 -84.2933 240° Southwest 411 473 22,000  Level Indianapolis Center
Sun 12:54:31 PM 40.6583 -84.4467 241° Southwest 410 472 22,000  Level Indianapolis Center
Sun 12:55:33 PM 40.5919 -84.5986 240° Southwest 409 471 22,000  Level Indianapolis Center
Sun 12:56:35 PM 40.5322 -84.7303 239° Southwest 416 479 22,000 -98 Level Indianapolis Center
Sun 12:57:36 PM 40.4753 -84.8611 240° Southwest 411 473 21,800 -732 Descending Indianapolis Center
Sun 12:58:38 PM 40.4197 -84.9844 239° Southwest 391 450 20,500 -1,403 Descending Indianapolis Center
Sun 12:59:40 PM 40.3661 -85.1058 240° Southwest 384 442 18,900 -1,210 Descending Indianapolis Center
Sun 01:00:42 PM 40.3117 -85.2275 240° Southwest 385 443 18,000 -1,210 Descending Indianapolis Center
Sun 01:01:44 PM 40.2569 -85.3469 239° Southwest 380 437 16,400 -2,177 Descending Indianapolis Center
Sun 01:02:46 PM 40.1989 -85.4842 241° Southwest 369 425 13,500 -2,516 Descending Indianapolis Center
Sun 01:03:48 PM 40.1492 -85.6022 241° Southwest 367 422 11,200 -1,220 Descending Indianapolis Center
Sun 01:04:49 PM 40.0997 -85.7139 240° Southwest 361 415 11,000 -98 Descending Indianapolis Center
Sun 01:05:51 PM 40.0333 -85.8136 229° Southwest 363 418 11,000 -48 Level Indianapolis Center
Sun 01:06:53 PM 39.9592 -85.9094 225° Southwest 370 426 10,900  Descending Indianapolis Center
Sun 01:07:55 PM 39.8831 -86.0100 225° Southwest 367 422 11,000 48 Climbing Indianapolis Center
Sun 01:08:57 PM 39.8111 -86.1028 225° Southwest 364 419 11,000 -417 Level Indianapolis Center
Sun 01:09:50 PM 39.7500 -86.1667 219° Southwest 283 326 10,200 -1,381 Descending Indianapolis TRACON
Sun 01:10:50 PM 39.7000 -86.2333 226° Southwest 258 297 8,400 -2,050 Descending Indianapolis TRACON
Sun 01:11:50 PM 39.6500 -86.2833 218° Southwest 252 290 6,100 -2,300 Descending Indianapolis TRACON
Sun 01:12:50 PM 39.6000 -86.3500 226° Southwest 243 280 3,800 -1,632 Descending Indianapolis TRACON
Sun 01:13:44 PM 39.6167 -86.4000 293° West 211 243 3,000 -842 Descending Indianapolis TRACON
Sun 01:14:44 PM 39.6500 -86.3667 38° Northeast 170 196 2,200 -826 Descending Indianapolis TRACON
Sun 01:16:02 PM 39.6833 -86.3167 49° Northeast 139 160 1,100 -846 Descending Indianapolis TRACON

Login

Don't have an account? Register now (free) for customized features, flight alerts, and more!